Wetbulb
32.51 33.37 32.58 32.45 32.47 32.08 30.83 30.21 28.02 23.72 24.11 28.48 28.31 32.16 33.55 34.41 35.88 35.00 34.56 38.60 40.25 39.86 39.47 39.88 40.35 40.27 40.74 41.76 42.70 44.02 45.10 46.98 49.74 51.97 54.43 61.73 62.67 63.72
32.42 32.87 32.77 32.99 32.63 32.34 31.97 31.58 31.21 29.10 24.96 28.84 29.43 31.86 33.91 34.98 35.47 33.95 34.86 38.47 38.84 40.30 40.56 40.51 39.95 40.28 40.72 40.99 41.26 42.70 43.87 45.86 48.50 50.70 53.94 61.06 62.04 62.78
31.31 31.99 31.48 32.60 32.02 32.16 32.04 31.66 30.64 30.56 27.53 28.79 31.66 32.62 31.95 31.89 33.29 32.98 33.61 33.97 35.68 39.75 40.70 41.09 40.20 39.95 39.81 40.21 41.21 41.66 42.76 44.60 46.64 49.03 52.23 60.07 61.27 62.05
29.66 29.92 31.18 32.48 30.73 31.62 31.30 30.53 30.51 31.02 29.53 27.73 30.23 31.16 31.49 31.54 30.40 29.61 32.47 35.17 34.77 38.70 39.19 39.60 39.91 40.29 40.39 40.55 41.21 42.02 42.55 43.55 44.58 46.01 49.78 58.30 59.61 60.29
29.14 30.28 31.41 31.51 30.47 30.87 30.73 29.62 29.95 30.83 30.24 29.02 28.43 31.63 31.95 31.08 29.21 31.05 31.45 31.74 35.98 38.47 39.72 39.87 40.16 41.17 41.36 41.51 41.90 42.02 42.43 43.11 43.30 44.25 51.00 54.68 55.88 57.41
30.46 31.64 31.07 31.76 30.72 29.94 29.72 29.46 29.70 29.08 29.36 29.01 28.97 29.34 31.18 32.01 29.33 25.75 27.82 32.72 30.57 34.87 37.21 39.07 39.42 40.55 41.32 42.07 41.60 41.96 42.47 42.84 43.13 44.77 47.74 48.64 49.91 51.91
31.34 32.46 32.69 33.30 33.93 32.25 30.64 29.54 30.00 28.92 28.11 27.96 27.76 28.39 29.43 30.64 27.81 24.96 29.21 31.14 32.76 34.16 36.18 37.22 38.85 39.79 40.88 41.96 42.12 42.70 42.57 42.86 43.40 45.36 48.46 47.55 47.55 49.00
29.45 30.37 31.77 32.49 32.77 32.23 32.71 30.71 30.41 28.63 27.77 27.91 27.76 27.37 28.45 29.30 26.99 24.68 29.94 29.10 26.33 36.73 35.02 34.62 37.81 37.95 39.89 40.27 41.53 41.60 41.51 42.36 43.64 46.36 50.32 46.29 46.65 48.28
28.72 29.44 30.45 31.64 31.24 29.75 29.54 30.47 30.66 31.74 30.76 30.96 28.79 28.29 27.54 27.71 27.90 30.59 31.11 31.00 30.47 32.96 33.07 32.07 36.76 35.94 38.58 40.44 41.13 41.30 41.15 41.48 44.08 45.83 46.83 46.83 46.65 46.29
28.46 30.25 30.58 29.72 30.08 29.55 29.36 28.59 29.73 31.40 33.02 33.77 32.10 31.57 31.34 31.37 31.35 31.22 31.68 32.22 32.86 33.74 36.15 30.96 35.20 34.31 37.81 39.45 41.20 41.72 41.68 42.57 44.06 45.16 45.54 46.29 46.10 46.10
28.46 30.02 30.23 29.79 30.83 32.41 29.93 28.75 28.91 30.27 34.18 35.05 35.63 34.96 34.92 34.54 33.41 28.15 28.21 30.49 30.13 32.43 34.47 31.95 32.83 32.30 35.02 38.12 40.28 42.29 42.20 43.50 43.53 44.80 45.54 46.47 45.92 46.29
27.89 28.46 30.27 30.88 32.07 32.19 30.31 29.52 28.49 29.66 31.23 30.65 33.04 34.26 33.61 33.31 32.93 30.14 30.54 29.36 31.27 30.76 33.02 31.01 31.95 31.95 33.01 35.20 38.87 43.61 44.92 42.10 43.19 44.75 45.11 45.71 46.81 57.38
26.56 27.31 29.79 31.99 32.45 32.83 32.77 31.09 30.55 32.15 32.45 32.18 32.75 31.83 32.66 33.22 33.64 33.11 33.74 33.76 31.72 31.15 34.41 31.93 31.77 32.12 33.38 33.38 35.36 41.83 46.36 45.00 47.08 46.72 45.15 45.71 49.35 55.39
26.36 28.55 30.37 32.11 32.60 32.64 32.16 32.27 32.44 32.65 33.41 32.24 32.43 31.20 31.33 32.27 33.93 32.89 34.58 35.59 35.42 34.36 35.25 35.47 32.48 32.84 33.58 33.02 33.94 37.87 45.24 49.13 50.49 50.97 52.53 48.73 46.83 48.26
28.20 30.55 31.32 31.20 31.69 31.19 32.06 32.25 32.24 32.42 31.98 31.83 31.14 31.36 32.12 32.64 33.59 33.66 34.33 35.04 35.76 36.44 36.64 38.17 37.13 36.73 34.46 33.58 33.93 34.31 40.81 41.03 51.77 52.35 52.99 55.58 56.56 55.88
28.64 29.40 29.39 29.20 29.78 30.33 31.72 32.09 32.22 32.30 31.97 31.65 31.68 32.10 33.19 32.93 32.48 33.54 32.46 32.64 32.12 31.93 33.49 35.47 35.26 34.56 33.37 35.20 38.33 35.56 38.46 40.47 52.86 52.69 54.16 56.70 56.62 56.48
27.93 27.82 26.99 27.14 27.18 28.13 29.83 31.03 31.96 32.29 31.50 31.91 32.09 32.18 32.55 32.27 32.27 32.96 32.61 32.63 31.71 31.56 31.74 32.09 35.24 35.25 33.68 33.92 34.70 35.50 39.35 47.45 52.64 51.13 48.02 43.65 40.37 50.04
26.26 24.86 24.59 25.31 25.63 26.80 27.74 29.16 29.80 30.96 31.50 31.82 31.83 32.04 32.09 32.16 32.15 32.51 32.55 31.82 31.30 31.48 31.74 32.12 33.72 33.73 34.48 35.74 33.70 32.58 36.50 38.41 42.77 51.09 50.19 44.92 39.28 36.02
23.79 23.69 23.89 24.26 25.19 26.39 27.13 28.38 28.63 29.93 31.54 31.37 31.46 31.68 32.04 32.45 32.22 31.70 31.73 31.52 31.03 31.50 31.71 33.11 34.30 34.32 33.94 30.79 31.13 33.17 33.10 34.11 41.65 38.61 47.39 37.73 33.47 31.27
23.18 22.84 22.94 23.89 24.61 25.53 26.39 27.38 28.40 29.40 30.02 30.63 30.97 31.46 31.86 31.89 31.82 31.01 31.00 30.56 30.85 31.45 31.61 31.89 31.78 31.76 30.45 29.03 28.31 31.20 32.81 34.86 39.63 36.65 34.24 34.12 32.99 32.52
22.68 22.46 22.78 23.34 24.12 25.12 26.26 26.98 27.63 27.59 28.89 30.19 30.64 31.07 31.65 31.85 31.67 31.68 31.14 30.54 31.00 30.89 30.27 30.85 31.36 31.72 31.88 32.33 31.07 30.54 31.74 32.63 33.53 37.35 37.15 38.92 33.93 33.55
23.12 22.52 22.18 22.85 23.27 24.02 24.93 25.82 25.80 25.99 26.93 28.64 30.64 30.98 31.43 31.82 31.68 31.89 31.53 30.48 30.46 30.53 30.85 31.68 32.57 33.16 32.21 30.40 28.90 29.79 31.22 32.01 32.29 31.06 31.47 33.17 36.58 34.47
23.12 22.96 22.56 22.28 22.35 22.90 23.44 24.10 24.07 24.72 26.43 27.70 30.07 30.65 31.25 30.64 31.99 32.42 32.25 31.43 30.76 30.53 30.99 30.74 31.52 31.60 30.67 30.10 29.47 29.38 29.11 30.26 30.97 28.68 28.09 30.83 31.40 31.43
MSLP
1023.39 1022.86 1022.39 1022.05 1021.83 1021.62 1021.39 1021.13 1020.59 1019.57 1018.88 1018.38 1017.98 1017.52 1017.17 1016.97 1016.78 1016.56 1016.41 1016.20 1016.04 1015.86 1015.52 1015.42 1015.44 1015.47 1015.37 1014.96 1014.84 1014.65 1014.76 1014.36 1014.13 1013.48 1012.81 1012.50 1013.37 1014.36
1022.93 1022.32 1021.79 1021.41 1021.16 1020.91 1020.72 1020.40 1020.05 1019.51 1018.69 1018.24 1017.76 1017.39 1016.99 1016.80 1016.44 1016.20 1016.12 1015.81 1015.58 1015.36 1014.85 1014.58 1014.76 1014.82 1014.76 1014.61 1014.60 1014.48 1014.17 1013.93 1013.86 1013.31 1012.73 1011.79 1012.81 1013.86
1022.54 1021.80 1021.21 1020.80 1020.53 1020.27 1019.98 1019.68 1019.40 1019.04 1018.38 1017.74 1017.42 1016.98 1016.61 1016.41 1016.11 1015.88 1015.80 1015.59 1015.12 1014.64 1014.06 1013.59 1013.87 1014.19 1014.17 1014.10 1014.16 1014.00 1013.70 1013.28 1013.30 1013.00 1012.41 1011.76 1012.29 1013.80
1022.01 1021.32 1020.66 1020.16 1019.82 1019.56 1019.40 1019.12 1018.87 1018.54 1018.26 1017.57 1017.06 1016.67 1016.32 1015.90 1015.70 1015.58 1015.38 1015.02 1014.64 1014.10 1013.96 1013.72 1013.69 1013.65 1013.52 1013.45 1013.49 1013.37 1013.09 1012.40 1012.42 1012.03 1011.40 1011.18 1012.48 1013.46
1021.44 1020.79 1020.23 1019.65 1019.34 1019.04 1018.96 1018.70 1018.38 1018.05 1017.78 1017.35 1016.66 1016.18 1015.67 1015.30 1015.18 1015.07 1014.92 1014.65 1014.19 1013.70 1013.41 1013.34 1013.24 1012.99 1012.74 1012.73 1012.77 1012.62 1012.25 1011.57 1011.58 1011.48 1010.41 1010.85 1012.44 1012.88
1020.85 1020.20 1019.60 1019.23 1018.90 1018.68 1018.40 1018.20 1017.92 1017.62 1017.26 1016.80 1016.19 1015.63 1015.19 1014.65 1014.63 1014.82 1014.64 1014.21 1013.84 1013.34 1013.01 1012.88 1012.58 1012.26 1012.09 1012.05 1012.05 1011.86 1011.58 1011.32 1010.73 1009.93 1009.74 1010.83 1012.16 1013.42
1020.38 1019.73 1019.17 1018.72 1018.30 1018.21 1018.02 1017.62 1017.29 1016.98 1016.63 1016.17 1015.63 1015.14 1014.67 1014.42 1014.35 1014.37 1014.15 1013.97 1013.45 1013.00 1012.84 1012.48 1012.01 1011.69 1011.32 1011.27 1011.24 1011.07 1010.88 1010.38 1010.29 1009.87 1009.51 1010.74 1012.38 1013.55
1020.26 1019.51 1018.93 1018.52 1018.23 1017.83 1017.47 1017.18 1016.80 1016.24 1015.76 1015.40 1015.00 1014.72 1014.35 1014.03 1014.00 1013.95 1013.82 1013.72 1013.10 1012.26 1012.30 1011.93 1011.76 1011.36 1010.98 1010.82 1010.64 1010.44 1010.47 1010.01 1009.68 1009.62 1009.55 1010.94 1012.50 1013.48
1020.37 1019.57 1018.87 1018.38 1018.01 1017.66 1016.94 1016.28 1015.62 1015.13 1014.73 1014.34 1014.00 1013.91 1013.82 1013.74 1013.67 1013.59 1013.27 1013.15 1012.81 1012.15 1012.01 1011.62 1011.14 1010.87 1010.44 1010.17 1010.15 1009.93 1009.40 1008.89 1009.10 1008.94 1009.31 1011.09 1012.49 1013.64
1020.42 1019.67 1018.97 1018.38 1017.85 1017.13 1016.24 1015.44 1014.74 1014.14 1013.53 1013.12 1012.95 1013.01 1013.12 1013.08 1013.24 1013.27 1013.12 1012.66 1012.18 1011.66 1011.48 1011.18 1010.52 1010.17 1009.79 1009.47 1009.24 1009.15 1008.95 1008.85 1008.53 1008.79 1010.02 1011.29 1012.73 1013.86
1020.32 1019.64 1018.94 1018.14 1017.34 1016.42 1015.57 1014.78 1014.02 1013.28 1012.60 1012.19 1012.15 1012.32 1012.39 1012.58 1012.86 1013.11 1012.91 1012.53 1011.84 1011.18 1010.88 1010.87 1010.19 1009.83 1009.17 1008.74 1008.22 1007.53 1007.79 1008.16 1008.33 1008.99 1010.35 1011.40 1012.89 1014.02
1020.28 1019.46 1018.64 1017.86 1016.82 1015.89 1015.06 1014.24 1013.42 1012.72 1012.28 1011.96 1011.86 1011.70 1012.13 1012.30 1012.45 1012.68 1012.50 1012.28 1011.73 1010.97 1010.80 1010.76 1009.94 1009.62 1008.84 1008.14 1007.91 1007.50 1007.92 1008.18 1008.70 1009.56 1010.64 1011.71 1012.89 1014.06
1020.64 1019.57 1018.63 1017.67 1016.62 1015.60 1014.66 1013.80 1013.05 1012.25 1011.68 1011.67 1011.66 1011.74 1011.85 1011.87 1011.89 1012.05 1011.95 1011.86 1011.59 1011.28 1010.68 1010.52 1009.78 1009.42 1008.97 1008.44 1008.10 1007.86 1007.97 1008.50 1009.12 1010.17 1010.80 1011.82 1012.76 1013.63
1021.05 1019.93 1018.90 1017.78 1016.65 1015.60 1014.56 1013.63 1012.86 1012.27 1011.79 1011.75 1011.74 1011.86 1011.89 1011.79 1011.69 1011.76 1011.60 1011.48 1011.34 1011.03 1010.39 1010.05 1009.69 1009.29 1008.98 1008.50 1008.37 1008.25 1008.04 1008.35 1008.92 1009.81 1011.05 1012.61 1013.16 1014.22
1021.39 1020.31 1019.23 1018.11 1016.98 1015.92 1014.90 1014.02 1013.24 1012.66 1012.30 1012.10 1012.07 1012.06 1011.99 1012.00 1011.94 1011.74 1011.50 1011.20 1010.92 1010.55 1010.07 1009.58 1009.38 1008.83 1008.49 1008.34 1008.14 1008.41 1008.08 1008.64 1008.85 1009.67 1011.28 1012.39 1013.20 1014.47
1021.62 1020.68 1019.76 1018.73 1017.62 1016.66 1015.55 1014.68 1013.98 1013.40 1012.90 1012.50 1012.29 1012.21 1012.02 1011.87 1011.76 1011.53 1011.31 1010.96 1010.72 1010.42 1010.19 1009.74 1009.23 1008.77 1008.67 1008.41 1007.76 1008.42 1008.55 1008.64 1009.03 1010.47 1011.40 1012.52 1013.50 1014.64
1022.23 1021.25 1020.18 1019.17 1018.28 1017.37 1016.46 1015.67 1014.90 1014.18 1013.59 1013.14 1012.72 1012.46 1012.17 1011.94 1011.83 1011.47 1011.52 1011.08 1010.92 1011.00 1010.78 1010.22 1009.69 1009.17 1009.33 1008.92 1008.92 1009.49 1009.50 1009.13 1009.56 1010.78 1011.96 1013.30 1014.74 1015.04
1022.86 1022.23 1021.51 1020.69 1019.77 1018.79 1017.74 1016.78 1016.00 1015.26 1014.55 1013.97 1013.36 1013.04 1012.66 1012.22 1012.00 1011.54 1011.38 1011.41 1011.13 1010.86 1010.75 1010.63 1009.81 1009.35 1009.10 1009.52 1010.73 1010.95 1010.50 1010.13 1010.56 1011.09 1012.14 1013.68 1015.93 1016.72
1023.98 1023.60 1022.95 1022.10 1021.17 1020.10 1019.04 1018.03 1017.22 1016.55 1015.76 1014.97 1014.23 1013.34 1012.94 1012.57 1012.24 1012.14 1012.06 1011.66 1011.38 1011.45 1011.40 1010.88 1010.09 1009.70 1009.94 1010.98 1012.03 1011.86 1010.77 1011.04 1011.10 1012.13 1013.09 1014.81 1016.70 1018.14
1025.27 1024.89 1024.22 1023.41 1022.47 1021.48 1020.38 1019.31 1018.36 1017.67 1016.76 1016.43 1015.81 1014.93 1014.14 1013.31 1013.08 1012.88 1012.76 1012.51 1012.55 1012.44 1011.94 1011.65 1011.30 1011.04 1010.97 1012.19 1012.80 1013.21 1012.15 1011.86 1012.00 1013.38 1015.08 1016.49 1017.92 1018.45
1026.50 1026.02 1025.53 1024.69 1023.77 1022.82 1021.78 1020.80 1019.76 1018.78 1017.90 1016.72 1016.26 1016.29 1015.56 1014.88 1014.28 1013.99 1013.70 1013.38 1013.10 1012.96 1012.83 1012.84 1013.06 1012.97 1012.70 1012.57 1013.15 1014.33 1014.17 1013.70 1013.77 1013.69 1015.46 1016.38 1017.64 1018.71
1027.75 1027.32 1026.71 1025.92 1025.08 1024.16 1023.22 1022.23 1021.35 1020.37 1019.57 1018.51 1017.74 1017.05 1016.72 1016.23 1015.62 1015.06 1014.90 1014.63 1014.52 1014.36 1014.25 1014.08 1013.79 1013.46 1013.07 1013.44 1014.45 1014.86 1015.77 1016.04 1015.57 1015.32 1016.08 1016.17 1016.58 1017.85
1028.82 1028.40 1027.86 1027.14 1026.25 1025.40 1024.70 1023.81 1023.00 1022.20 1021.07 1020.19 1019.24 1018.41 1017.58 1017.10 1016.96 1016.46 1015.96 1015.56 1015.10 1014.97 1015.21 1014.97 1014.92 1014.84 1015.11 1015.34 1015.61 1016.44 1016.44 1016.52 1016.81 1016.98 1018.50 1018.66 1017.40 1017.73
Wind_Speed
10 10 8 7 6 7 7 7 8 9 8 7 6 6 4 3 7 6 6 12 16 11 12 17 18 16 18 19 19 19 21 19 19 20 28 38 34 32
9 12 7 7 7 7 7 8 7 8 9 6 6 7 5 6 8 6 7 17 14 19 17 19 17 17 17 17 18 20 20 20 19 19 20 35 30 29
13 12 12 10 7 6 6 7 7 7 8 7 7 7 6 6 5 5 6 8 8 20 12 19 15 16 17 17 18 20 20 22 20 19 22 35 33 29
14 13 12 8 9 7 5 7 7 7 7 11 8 6 7 6 5 6 6 8 8 15 8 7 11 16 17 16 16 17 17 22 18 20 23 32 31 31
14 13 11 10 9 6 5 6 5 6 7 8 8 6 6 4 5 5 6 6 7 16 12 11 12 14 13 15 15 15 15 20 18 19 21 29 29 30
13 11 10 8 7 6 7 7 7 7 8 7 7 7 5 6 3 3 3 2 4 7 10 9 15 15 15 15 14 15 15 18 19 15 16 21 21 21
12 11 9 11 15 9 6 8 8 7 7 7 7 5 5 2 1 3 2 5 7 7 4 6 6 7 8 14 15 14 15 18 19 14 23 21 21 21
12 12 10 11 8 17 13 19 16 10 10 8 7 6 6 3 2 3 3 3 3 2 2 5 4 5 4 4 9 12 13 17 12 19 32 22 21 22
13 12 10 8 11 9 16 19 16 18 14 11 9 8 6 3 2 4 3 4 4 6 2 6 3 5 5 5 12 14 15 15 14 22 25 26 23 22
13 11 11 11 9 15 12 12 11 10 10 7 9 8 7 5 4 3 5 6 5 7 6 4 2 4 3 5 12 15 16 16 16 22 23 28 25 24
13 10 11 10 18 22 12 10 10 9 8 10 10 14 12 9 6 2 5 5 5 3 2 2 1 3 2 3 4 8 14 16 16 23 23 26 26 26
12 13 19 17 22 19 11 9 9 8 7 5 3 6 5 7 10 6 5 6 5 3 1 2 1 1 3 1 2 3 7 14 20 24 25 26 28 15
10 11 10 24 23 21 19 9 10 9 5 3 3 2 2 4 3 6 6 5 2 3 2 2 1 2 2 2 2 3 7 9 8 16 25 25 25 17
11 11 12 25 23 21 16 21 16 8 4 2 2 1 1 2 3 2 2 3 2 5 7 6 3 2 2 1 2 2 5 8 11 11 14 17 17 19
12 17 22 23 21 14 20 20 12 7 5 3 3 2 1 0 1 2 3 5 5 3 4 4 3 4 2 2 2 2 5 2 9 12 12 14 13 13
15 12 14 15 15 14 13 13 9 8 7 6 4 2 1 0 0 1 1 2 1 2 5 7 6 4 1 2 4 4 3 5 13 12 12 10 11 11
12 10 12 13 13 13 12 11 10 10 9 8 7 5 3 2 2 2 1 2 3 2 2 4 3 11 12 6 8 5 2 9 13 12 12 10 6 6
11 11 13 12 13 13 12 12 12 12 10 9 8 7 6 5 4 4 3 4 4 4 4 3 3 2 3 13 21 4 4 7 6 13 13 11 5 6
13 12 12 13 12 13 12 12 12 11 11 10 10 9 8 7 7 6 5 5 6 5 5 4 6 5 9 8 4 22 4 3 10 9 8 6 5 4
13 13 13 13 13 12 13 12 12 12 11 10 10 10 10 8 7 7 7 7 6 5 7 8 7 7 3 4 4 8 26 4 8 10 8 9 8 10
13 13 13 13 12 12 12 12 13 13 12 12 11 10 10 8 8 8 7 10 8 7 9 8 4 3 0 1 9 10 11 28 16 9 8 9 4 3
12 13 13 12 13 13 13 13 12 13 13 12 11 11 10 9 8 8 8 6 7 6 7 6 6 6 8 9 10 8 8 8 21 32 24 5 5 7
12 12 12 12 12 13 12 12 12 12 12 12 11 11 10 10 9 8 7 8 8 8 7 9 9 8 10 9 10 10 14 13 10 16 18 24 30 33
Wind_Direction
292 282 264 266 265 261 266 271 277 292 287 297 300 301 305 304 284 305 303 296 304 289 243 254 268 268 271 279 284 289 285 289 289 297 309 183 182 177
300 304 291 281 271 267 267 270 270 277 284 284 285 290 286 303 291 297 296 294 305 295 269 256 253 261 267 271 278 281 280 281 282 288 293 170 173 172
303 301 297 290 281 276 274 271 274 272 274 286 278 281 288 279 283 287 292 293 281 281 284 281 231 252 263 267 271 273 273 277 277 280 288 175 167 173
305 301 297 293 294 282 281 286 286 288 288 292 286 286 277 262 258 266 276 281 287 291 294 299 262 260 261 260 267 266 269 275 280 280 285 170 171 164
300 300 295 294 296 296 299 287 291 291 289 286 286 274 264 231 252 257 250 255 273 281 265 240 266 274 267 252 253 262 270 274 275 266 197 159 170 163
303 299 302 290 294 295 295 295 290 289 288 284 279 280 274 253 188 226 287 274 281 283 287 280 275 270 268 250 249 255 262 265 275 269 162 150 154 157
316 312 311 304 313 318 302 285 282 284 281 282 279 279 281 330 217 225 231 280 277 251 247 264 264 258 248 250 248 251 254 261 260 214 153 146 147 156
332 328 327 335 328 315 330 311 295 282 272 266 267 275 282 263 223 215 235 269 288 169 228 277 248 256 249 231 239 254 258 253 245 177 156 143 149 154
331 328 328 335 330 335 312 304 294 286 268 259 246 247 259 266 269 296 256 248 257 280 259 277 249 251 244 243 241 246 255 253 204 150 143 147 153 153
333 329 330 332 329 320 310 300 293 285 276 259 233 232 246 249 278 285 291 293 277 271 238 252 214 243 242 244 241 244 222 200 165 144 145 148 153 153
331 334 334 320 319 325 313 303 295 287 289 278 241 221 234 230 241 330 283 292 299 289 175 258 239 264 239 247 261 218 182 169 148 143 150 149 152 150
335 337 335 333 332 332 326 306 299 294 292 292 321 239 225 236 235 222 262 279 298 295 90 276 273 293 292 233 315 139 162 158 147 149 149 149 153 153
336 333 334 338 339 336 333 323 326 321 310 251 263 187 194 235 221 213 238 257 276 261 317 303 303 309 254 316 337 35 154 142 143 151 145 150 157 151
338 332 339 343 340 338 340 345 350 354 19 9 79 64 354 17 38 9 330 329 296 271 283 264 263 246 255 319 116 2 119 132 144 147 150 156 140 133
341 342 345 347 346 349 350 355 357 6 7 25 49 49 24 314 276 282 274 264 265 312 332 312 300 281 231 192 137 147 108 39 143 131 142 158 147 145
345 348 353 355 359 359 360 3 4 10 12 14 12 11 331 328 111 279 269 279 286 335 350 6 8 17 312 26 110 70 34 137 150 139 144 147 142 147
354 359 3 4 3 1 1 3 6 11 14 10 15 18 30 12 3 332 5 337 48 329 345 350 345 62 61 47 66 39 126 128 140 138 120 103 58 123
10 8 6 3 1 358 358 2 8 8 8 12 15 17 17 16 23 9 18 36 40 20 22 326 282 346 2 59 48 18 81 92 114 130 125 114 81 12
18 11 6 1 359 359 358 1 5 4 5 13 12 9 15 19 21 25 24 19 29 25 19 356 355 17 89 80 341 16 63 26 109 83 118 88 104 15
15 10 5 1 359 359 358 359 2 7 6 13 15 13 10 11 22 27 26 25 27 31 46 36 33 26 41 79 100 42 32 54 104 96 100 86 95 133
8 8 6 3 360 358 358 360 2 3 3 4 13 18 13 13 21 24 27 25 29 32 46 39 19 2 82 115 82 63 37 50 55 103 128 114 99 66
5 5 5 3 2 1 360 360 2 4 3 1 6 8 12 17 21 23 29 30 33 37 53 46 31 43 54 66 74 66 67 63 52 56 48 50 154 144
2 3 4 2 1 1 3 1 0 358 358 359 4 6 9 15 19 21 29 37 33 41 47 61 48 49 54 58 68 81 71 58 65 66 55 52 80 88